Temperature
18 18 18 18 18 18 18 17 17 18 18 18 18 18 18 18 18 18 18 18 18 18 18 18 18 18 18 18 18 18 18 17 17 17 17 17 17 17 17 17 17 16 16
18 18 18 18 18 17 17 17 17 17 17 18 18 18 18 18 18 18 18 18 18 18 18 18 18 18 18 18 18 18 18 18 17 17 17 17 17 17 17 17 17 17 16
17 17 17 17 17 17 17 17 17 17 17 17 17 17 18 18 18 18 18 18 17 17 18 18 18 18 18 18 18 18 18 18 18 18 17 17 17 17 17 17 17 17 17
17 17 17 17 17 17 17 17 17 17 16 16 17 17 17 17 17 17 17 17 17 17 17 17 17 18 18 18 18 18 18 18 18 18 18 17 17 17 17 17 17 17 17
17 17 17 16 16 16 16 16 16 16 16 16 16 17 17 17 17 17 17 17 17 17 17 17 17 17 18 18 18 18 18 18 18 18 18 18 17 17 17 17 17 17 17
16 17 16 16 16 16 16 16 16 16 16 16 16 16 16 17 17 17 17 17 17 17 17 17 17 17 17 17 18 18 18 18 18 18 18 18 18 17 17 17 17 17 17
16 16 16 16 16 16 16 16 15 15 15 16 16 16 16 17 17 17 17 17 17 17 17 17 17 17 17 17 17 17 18 18 18 18 18 18 18 18 18 17 17 17 17
16 16 16 16 15 15 15 15 15 15 15 15 15 15 16 16 17 17 17 17 17 17 17 17 17 17 17 17 17 17 17 17 18 18 17 18 18 18 18 18 17 17 17
16 15 15 15 15 15 15 15 15 15 15 15 15 15 15 16 16 17 17 17 17 17 17 17 17 17 16 16 17 17 17 17 17 17 17 17 17 17 18 18 18 17 17
15 15 15 14 14 14 14 14 14 14 14 14 14 15 15 15 15 15 16 16 17 17 17 17 16 17 16 16 16 17 17 17 17 17 17 17 17 17 17 17 17 17 17
15 15 15 14 14 14 14 13 14 14 14 14 14 14 14 15 15 14 15 15 16 16 16 16 16 16 16 16 16 16 17 17 17 17 17 17 17 17 17 17 17 17 17
15 15 14 14 13 13 13 13 13 13 13 13 13 13 13 14 14 14 14 15 15 16 16 16 16 16 16 16 16 16 16 16 16 17 17 17 17 17 17 17 17 17 17
14 14 14 14 13 13 13 12 12 12 12 12 12 13 13 13 13 14 14 14 14 15 15 16 16 16 16 16 16 16 16 16 16 16 16 16 17 17 17 17 17 17 17
13 13 13 13 13 12 12 12 12 12 12 12 12 12 12 12 13 13 13 13 14 14 14 15 15 15 15 15 15 16 16 16 16 16 16 16 16 16 17 17 17 17 17
13 13 13 12 12 12 12 11 11 11 11 12 12 12 12 12 12 12 13 13 13 13 14 14 15 15 15 15 15 15 15 16 16 16 16 16 16 16 16 16 16 16 17
13 12 12 12 12 11 11 11 11 11 11 11 11 11 11 12 12 12 12 12 13 13 13 13 14 14 14 15 15 15 15 15 15 15 15 16 16 16 16 16 16 16 16
12 12 12 12 11 11 11 11 11 11 11 11 11 11 11 11 11 11 11 12 12 12 12 13 13 14 14 14 14 14 14 15 15 15 15 15 15 16 16 16 16 16 16
12 12 12 12 11 11 11 11 11 11 11 11 11 11 11 11 11 11 11 11 11 12 12 12 13 13 13 14 14 14 14 14 14 15 15 15 15 15 15 16 16 16 16
12 12 12 11 11 11 11 11 11 11 11 10 10 10 10 10 11 11 11 11 11 11 12 12 12 12 13 13 13 13 13 14 14 14 14 15 15 15 15 15 16 16 16
12 12 12 11 11 11 11 11 11 10 10 10 10 10 10 10 10 10 10 11 11 11 11 11 11 12 12 13 13 13 13 13 13 14 14 14 14 15 15 15 15 16 16
12 11 11 11 11 11 11 11 11 10 10 10 10 10 10 10 10 10 10 10 10 10 10 10 11 11 12 12 12 13 13 13 13 13 13 14 14 14 15 15 15 15 15
12 12 11 11 11 11 11 11 11 11 10 10 10 10 10 10 10 10 10 10 10 10 10 10 10 11 11 11 12 12 12 12 12 13 13 13 14 14 14 15 15 15 15
12 12 12 11 11 11 11 11 11 10 10 10 10 10 9 9 10 10 10 10 10 10 10 10 10 10 11 11 11 11 12 12 12 12 12 13 13 13 14 14 14 15 15
12 12 11 11 11 11 11 10 10 10 10 10 10 10 9 9 9 9 9 9 9 9 10 10 10 10 10 11 11 11 11 11 11 12 12 12 12 12 13 13 14 14 14
12 12 11 11 11 11 11 11 10 10 10 10 9 9 9 9 9 9 9 9 9 9 9 9 9 10 10 10 10 10 10 10 11 11 12 12 12 12 12 12 13 13 14
12 12 11 11 11 11 11 11 10 10 10 9 9 9 9 9 9 9 9 9 9 9 9 9 9 9 9 10 10 10 10 10 10 11 11 11 12 12 11 12 12 12 13
Wind_Speed
0 1 2 2 3 3 2 2 3 3 3 5 7 6 6 7 7 4 8 17 19 19 19 19 19 19 19 20 20 19 19 18 18 18 17 15 15 15 14 14 13 12 12
0 1 1 2 3 3 2 2 3 3 3 3 5 6 6 7 6 5 6 14 19 19 19 19 20 20 20 21 21 22 21 21 20 20 19 18 17 16 16 15 15 14 13
0 1 2 2 2 4 4 3 4 4 4 5 6 6 5 7 8 8 9 9 12 17 20 21 22 22 22 22 22 23 23 23 23 22 22 21 20 19 18 18 17 16 16
1 2 2 1 2 4 3 3 3 2 3 4 4 6 5 5 7 9 10 11 12 13 18 24 24 24 24 24 24 24 25 25 25 24 24 23 22 22 21 20 19 18 18
1 2 1 1 3 2 1 3 1 1 3 4 5 6 5 6 6 8 8 11 13 14 14 20 26 26 25 25 25 26 26 26 27 26 25 25 24 24 23 22 21 21 20
1 2 2 0 2 2 1 1 2 3 3 4 7 6 5 6 6 7 8 9 12 15 16 16 18 22 26 27 27 27 27 28 28 28 28 27 26 26 26 25 24 23 22
2 3 3 1 2 2 2 2 2 4 4 4 4 5 6 7 8 7 7 7 8 11 13 13 14 16 18 27 29 28 29 29 30 30 29 29 28 28 28 27 26 25 24
1 4 1 3 3 3 3 3 2 3 5 4 3 5 5 6 4 6 5 6 7 5 6 11 13 15 16 16 22 28 29 30 30 30 30 30 30 30 29 29 28 27 26
2 3 3 3 4 4 3 3 3 4 4 4 4 4 3 4 5 4 3 3 3 3 4 4 8 13 17 16 16 24 29 30 31 31 31 31 31 31 30 30 29 28 27
3 4 3 3 3 4 5 5 3 3 4 4 4 4 5 4 3 4 5 4 4 4 5 5 4 7 11 13 16 18 25 29 31 31 31 31 32 31 31 30 29 28 28
4 5 4 1 2 3 5 5 4 4 4 5 5 4 5 4 4 5 6 5 4 3 4 5 4 4 8 11 12 16 20 25 28 30 31 31 31 31 31 31 30 29 28
3 2 1 1 1 3 4 5 5 5 4 5 5 5 5 5 5 4 5 5 5 4 4 4 4 3 6 10 12 14 17 20 25 27 29 30 31 31 31 30 30 30 29
4 5 4 3 3 3 4 5 5 6 6 6 5 5 5 5 5 5 5 6 6 5 5 4 4 3 4 5 7 10 12 16 21 25 27 28 30 31 31 31 31 30 29
5 4 4 3 4 4 6 5 5 6 6 5 7 7 5 6 6 5 5 5 6 6 6 6 3 2 1 2 4 7 8 14 18 21 24 25 27 29 31 31 31 31 30
5 6 6 5 5 6 6 6 5 6 6 6 6 7 5 5 6 6 5 5 6 6 6 6 4 2 2 2 4 6 7 11 16 19 21 23 25 27 29 31 31 30 30
5 5 6 6 6 6 6 6 6 6 7 6 6 7 7 6 6 6 5 5 6 6 7 5 5 4 3 3 5 6 7 10 15 18 20 22 23 25 27 29 30 30 30
4 5 6 6 7 7 7 6 7 8 8 7 8 8 8 7 6 6 6 6 6 6 7 6 5 4 3 4 3 4 7 7 9 15 18 20 22 23 24 26 28 29 29
5 6 6 6 7 8 7 7 8 8 8 8 8 8 8 8 8 7 6 7 7 7 7 8 6 5 6 5 5 5 4 6 6 10 15 17 20 22 23 24 26 27 28
6 6 6 7 7 7 7 8 8 8 8 8 8 8 8 8 8 7 7 7 7 8 7 7 7 6 5 5 5 5 5 3 4 7 10 12 15 18 21 22 24 25 26
6 7 7 7 7 8 8 8 8 8 8 7 7 8 8 9 9 8 8 8 8 8 7 7 7 6 6 5 4 4 4 3 3 4 4 6 10 13 16 18 20 22 23
8 7 7 7 7 8 9 7 6 8 6 7 7 8 10 11 11 9 10 7 6 5 6 6 7 6 6 4 4 4 4 3 3 3 3 3 4 5 8 13 16 19 20
7 7 7 8 8 10 4 3 4 6 7 8 9 9 10 11 13 15 16 14 12 10 8 7 7 7 6 5 4 4 3 3 3 3 3 3 4 4 4 7 13 17 19
7 7 7 8 8 9 9 9 9 7 8 9 9 9 12 13 10 7 10 14 15 17 15 11 10 9 8 6 5 5 5 4 4 2 2 3 2 3 2 5 13 16 17
6 7 7 8 8 10 10 10 10 9 10 10 11 11 11 11 13 9 8 8 9 10 12 13 12 12 11 8 6 6 6 5 4 3 3 2 2 2 2 4 9 13 15
7 7 8 8 8 9 10 12 11 7 9 11 11 11 11 10 12 11 8 8 9 9 12 15 15 14 15 12 8 5 5 5 5 4 4 3 3 2 2 2 5 11 13
7 9 9 8 8 9 11 12 12 8 9 9 9 9 12 11 11 10 8 8 9 9 9 9 8 10 11 11 12 10 8 7 5 4 5 5 4 4 3 2 3 6 8
Wind_Direction
153 315 301 307 294 281 261 235 236 256 271 279 273 256 248 253 263 255 171 175 181 186 189 192 196 200 203 202 201 200 200 199 196 193 193 192 190 188 186 183 181 180 179
123 281 279 280 286 286 266 258 258 257 266 264 268 274 274 269 266 256 205 193 192 196 199 201 204 205 206 207 206 205 203 203 200 198 197 197 197 195 193 191 189 188 187
116 288 262 252 261 260 250 236 248 257 252 255 253 255 254 254 255 248 240 221 209 209 211 211 210 209 208 210 211 209 207 205 203 201 200 199 200 200 199 196 195 194 195
99 280 262 235 250 255 244 227 220 251 274 277 273 263 253 244 245 243 239 234 228 228 219 218 216 213 211 212 213 212 209 208 205 204 203 202 202 202 203 201 200 200 200
3 315 285 285 277 279 277 291 66 277 275 271 266 253 249 245 240 244 236 234 231 230 226 220 217 215 214 215 216 214 212 210 208 206 205 205 205 204 205 205 204 204 205
357 328 268 359 310 288 279 315 309 279 267 259 273 284 263 253 240 238 238 235 230 229 228 225 216 218 218 217 216 216 215 212 210 209 208 208 207 207 206 207 206 206 207
345 303 319 334 275 285 310 302 304 295 282 265 269 279 270 254 240 229 228 233 232 231 228 222 215 213 218 221 219 216 216 214 213 211 210 210 209 209 207 207 207 208 209
295 288 317 303 310 320 289 273 270 283 294 300 295 290 291 284 272 255 225 221 231 229 229 231 220 214 217 213 217 217 217 216 215 214 212 212 211 210 208 207 207 208 209
279 301 308 298 320 311 301 309 279 268 277 295 286 283 291 296 329 307 300 259 233 231 237 238 230 222 222 219 212 215 217 217 217 216 215 214 212 211 209 208 208 208 209
282 274 269 285 305 305 309 298 311 312 289 288 289 276 264 273 285 306 309 298 269 244 245 255 260 242 232 230 225 217 215 217 218 218 217 216 213 211 209 209 209 210 210
268 259 245 241 288 289 303 315 322 304 298 293 297 301 295 282 244 251 280 291 295 277 253 240 237 234 235 232 230 227 219 216 217 218 218 216 214 212 211 211 212 212 213
294 304 300 64 301 304 316 309 304 291 281 290 297 297 296 290 281 272 276 287 286 276 271 262 238 223 226 226 231 233 226 219 217 218 219 218 216 213 213 213 215 215 216
328 28 21 18 335 319 303 293 292 285 284 282 279 273 277 284 288 285 283 286 292 298 290 270 244 223 230 220 227 234 232 224 219 219 220 219 217 214 213 213 215 215 216
328 356 344 322 303 297 295 306 303 291 281 280 278 274 274 277 281 282 276 280 286 285 282 277 261 221 202 241 237 241 243 229 222 220 220 220 219 216 215 214 213 214 214
317 345 340 319 303 293 289 289 278 282 284 280 275 275 264 269 272 269 267 264 267 276 279 284 285 246 197 214 228 239 248 234 226 223 223 223 221 218 215 213 212 212 213
302 304 298 298 296 291 283 277 277 277 280 276 269 269 272 267 269 274 273 267 258 259 270 277 284 282 270 264 238 238 250 246 232 225 223 222 221 218 216 214 213 212 214
297 291 288 287 286 282 278 275 274 272 271 270 273 271 266 265 266 271 272 269 266 261 267 272 269 279 271 267 260 251 252 243 233 223 222 222 220 218 216 214 214 214 214
283 280 279 282 281 281 281 279 278 281 279 277 274 274 273 271 263 260 262 264 263 260 260 269 271 276 273 265 253 248 253 248 238 228 221 221 219 216 214 213 213 213 213
278 277 277 277 278 279 277 273 269 270 272 275 276 274 273 270 269 263 262 264 268 268 257 259 264 259 256 259 257 256 255 246 239 231 219 216 214 213 213 212 212 211 210
275 274 273 274 275 276 274 272 271 268 267 268 269 272 272 269 267 265 265 257 261 266 271 268 265 261 255 249 242 242 256 248 240 223 208 205 206 207 209 207 206 206 205
274 275 278 278 277 276 271 271 270 275 284 288 284 279 273 269 264 261 266 267 275 276 275 275 271 267 258 250 242 231 244 246 237 214 192 193 186 194 200 203 202 200 199
272 274 274 277 277 280 287 268 268 289 290 285 282 279 278 271 259 246 243 245 246 255 259 264 272 271 274 275 271 250 243 243 245 214 200 202 183 190 189 190 191 189 190
280 278 277 276 275 276 261 245 243 262 274 274 273 273 276 276 282 268 249 241 243 244 241 246 257 264 272 273 277 275 258 253 248 211 206 223 186 181 165 166 172 178 180
279 279 277 277 274 274 259 240 237 249 266 267 265 263 263 267 272 270 271 264 252 246 238 235 239 246 252 257 247 251 255 257 258 225 199 209 190 152 128 125 156 165 169
275 277 278 272 270 270 255 237 228 255 263 267 264 263 260 260 259 252 251 258 262 261 257 246 230 231 231 236 232 236 240 233 244 230 201 189 166 138 124 126 139 156 159
273 276 276 276 275 273 260 235 219 248 265 273 274 269 263 259 259 241 236 247 257 260 267 275 256 244 237 233 224 221 225 227 231 229 202 180 167 152 146 129 147 152 147
Height
1551 1552 1552 1552 1553 1555 1555 1555 1556 1557 1557 1557 1558 1560 1560 1561 1562 1563 1563 1563 1565 1568 1570 1571 1573 1575 1578 1580 1582 1584 1586 1588 1591 1593 1595 1597 1600 1602 1604 1606 1608 1610 1611
1550 1550 1550 1551 1552 1552 1553 1553 1554 1554 1555 1555 1556 1556 1557 1557 1558 1559 1560 1561 1563 1564 1566 1568 1570 1572 1574 1576 1579 1581 1583 1586 1588 1590 1593 1595 1598 1600 1602 1605 1607 1608 1610
1548 1549 1549 1549 1549 1550 1551 1551 1551 1552 1552 1552 1553 1553 1553 1553 1554 1555 1556 1557 1558 1560 1561 1563 1565 1568 1570 1572 1575 1577 1580 1582 1584 1587 1590 1592 1595 1597 1600 1602 1605 1607 1609
1547 1547 1547 1547 1548 1548 1548 1549 1549 1549 1549 1549 1549 1549 1549 1550 1550 1551 1551 1552 1553 1555 1556 1558 1560 1563 1565 1567 1570 1573 1575 1578 1581 1583 1586 1589 1591 1594 1597 1599 1602 1604 1607
1546 1546 1545 1546 1546 1546 1546 1546 1546 1546 1546 1546 1546 1546 1546 1546 1546 1547 1547 1548 1549 1550 1552 1553 1555 1557 1560 1562 1564 1567 1570 1573 1576 1579 1581 1585 1587 1590 1593 1596 1598 1601 1604
1544 1544 1544 1544 1544 1544 1544 1543 1543 1543 1543 1543 1543 1543 1542 1542 1542 1542 1543 1543 1544 1545 1546 1548 1549 1551 1554 1556 1559 1561 1564 1567 1571 1573 1577 1580 1583 1586 1589 1592 1595 1598 1600
1542 1542 1542 1542 1542 1542 1541 1541 1541 1541 1541 1541 1541 1540 1539 1538 1538 1537 1538 1539 1540 1540 1541 1543 1544 1545 1547 1550 1552 1555 1558 1561 1564 1568 1571 1575 1578 1581 1584 1587 1590 1593 1596
1540 1541 1540 1539 1539 1539 1539 1538 1538 1538 1538 1538 1538 1537 1536 1536 1534 1534 1534 1534 1535 1536 1537 1538 1539 1540 1542 1543 1545 1548 1551 1554 1558 1561 1565 1569 1572 1575 1579 1582 1585 1589 1592
1538 1538 1537 1536 1536 1536 1536 1536 1535 1535 1535 1535 1535 1536 1535 1533 1532 1531 1531 1531 1531 1531 1532 1533 1533 1534 1536 1538 1539 1542 1545 1548 1551 1555 1558 1562 1566 1569 1573 1576 1580 1583 1587
1535 1535 1534 1533 1533 1532 1533 1532 1533 1532 1532 1532 1532 1532 1533 1532 1531 1529 1528 1528 1528 1528 1528 1528 1528 1529 1530 1532 1534 1536 1538 1541 1544 1548 1551 1555 1559 1563 1567 1570 1574 1578 1581
1533 1532 1531 1530 1529 1529 1529 1529 1528 1528 1529 1529 1529 1529 1529 1529 1528 1528 1526 1525 1525 1525 1525 1524 1524 1524 1524 1525 1528 1530 1532 1534 1537 1541 1544 1548 1552 1556 1560 1564 1568 1571 1575
1530 1529 1528 1526 1526 1526 1525 1525 1525 1525 1525 1525 1525 1525 1525 1525 1525 1525 1524 1522 1522 1522 1521 1521 1520 1520 1520 1521 1522 1524 1526 1528 1530 1534 1537 1541 1544 1548 1553 1557 1561 1565 1569
1528 1526 1525 1524 1523 1522 1522 1521 1521 1521 1521 1521 1521 1521 1521 1521 1521 1521 1520 1519 1518 1518 1517 1517 1516 1516 1516 1517 1517 1519 1520 1521 1524 1527 1530 1533 1537 1541 1545 1550 1554 1558 1562
1524 1523 1522 1521 1520 1519 1519 1518 1517 1517 1517 1517 1517 1517 1516 1516 1517 1517 1517 1517 1515 1514 1514 1513 1512 1512 1511 1512 1512 1513 1514 1515 1517 1519 1522 1526 1529 1533 1537 1542 1547 1551 1555
1521 1520 1518 1517 1516 1516 1515 1514 1513 1513 1513 1513 1512 1512 1512 1512 1512 1512 1513 1513 1513 1511 1510 1509 1509 1509 1508 1508 1507 1508 1509 1509 1511 1513 1515 1518 1521 1525 1530 1534 1539 1543 1548
1517 1516 1515 1514 1513 1512 1511 1510 1510 1509 1509 1508 1508 1508 1507 1507 1507 1507 1508 1508 1508 1507 1505 1505 1505 1505 1504 1504 1503 1503 1503 1504 1505 1506 1508 1511 1514 1517 1521 1526 1531 1536 1540
1514 1512 1511 1510 1509 1508 1507 1507 1506 1505 1505 1504 1503 1503 1503 1503 1502 1502 1502 1502 1502 1503 1501 1501 1501 1501 1500 1500 1499 1499 1499 1499 1499 1500 1501 1504 1506 1510 1514 1518 1523 1528 1532
1510 1509 1508 1506 1505 1504 1504 1503 1502 1501 1500 1499 1499 1498 1498 1498 1497 1497 1497 1497 1497 1497 1497 1496 1496 1496 1496 1496 1495 1494 1494 1494 1494 1494 1495 1497 1499 1503 1506 1511 1515 1520 1525
1507 1505 1504 1503 1501 1500 1499 1498 1497 1496 1496 1495 1494 1493 1493 1492 1492 1492 1492 1491 1492 1492 1492 1491 1490 1491 1491 1491 1491 1490 1489 1489 1489 1489 1490 1491 1493 1496 1499 1504 1508 1513 1518
1503 1502 1501 1499 1497 1496 1495 1493 1492 1492 1491 1490 1489 1488 1487 1487 1486 1486 1486 1486 1486 1486 1486 1486 1485 1486 1486 1486 1486 1485 1484 1484 1484 1484 1485 1486 1488 1490 1493 1497 1501 1506 1511
1500 1499 1497 1495 1494 1492 1491 1489 1488 1487 1486 1484 1483 1482 1481 1481 1480 1480 1480 1480 1481 1480 1480 1480 1480 1481 1481 1481 1481 1481 1480 1480 1480 1480 1480 1481 1482 1484 1487 1490 1495 1499 1504
1496 1495 1493 1491 1489 1488 1487 1485 1484 1482 1480 1478 1476 1475 1474 1474 1474 1473 1473 1474 1474 1474 1474 1475 1475 1475 1476 1476 1477 1477 1476 1476 1476 1476 1477 1477 1478 1480 1482 1485 1488 1493 1498
1492 1490 1488 1486 1484 1483 1482 1480 1478 1476 1474 1472 1470 1468 1468 1468 1468 1468 1467 1467 1467 1467 1468 1468 1468 1468 1470 1471 1472 1472 1472 1472 1472 1472 1473 1473 1475 1476 1478 1481 1484 1488 1492
1488 1486 1484 1482 1479 1478 1476 1475 1473 1470 1468 1466 1464 1462 1461 1461 1461 1461 1460 1460 1460 1460 1460 1460 1460 1461 1463 1465 1466 1467 1467 1467 1467 1468 1469 1469 1470 1472 1474 1477 1480 1483 1487
1483 1481 1479 1477 1475 1473 1471 1469 1467 1465 1462 1460 1458 1457 1456 1455 1454 1454 1454 1453 1453 1453 1454 1454 1454 1454 1456 1458 1460 1461 1462 1462 1462 1463 1465 1466 1467 1469 1471 1473 1476 1480 1483
1479 1477 1474 1472 1470 1468 1466 1464 1462 1460 1457 1455 1453 1452 1451 1449 1448 1448 1447 1447 1446 1446 1447 1447 1448 1448 1449 1450 1452 1454 1455 1457 1457 1458 1460 1462 1463 1466 1468 1470 1473 1476 1479